Location: *
(6.1770°N, 170.5260°W)
Time: 01:34:30
(UTC+00:00)

Daily predictions for brighter satellites

Satellite Brightness Start Highest point End
(mag) Time Altitude Azimuth Time Altitude Azimuth Time Altitude Azimuth
MAQSAT/ARIANE V 4.3 04:58:43 10° W 05:03:17 67° S 05:46:23 10° E
ARIANE 5 R/B 3.5 05:25:23 10° WSW 05:28:42 47° S 05:43:58 10° E
Cosmos 1602 Rocket 3.7 05:30:55 10° N 05:35:12 52° E 05:39:32 10° SSE
BREEZE-M DEB (TANK) 3.2 05:28:12 10° SSW 05:38:10 57° SE 05:41:15 10° NE
Stardust Del rocket 2.8 05:36:25 10° WNW 05:38:47 63° SSW 05:42:21 10° ESE
H-2A ROCKET BODY 3.1 05:38:51 10° WSW 05:40:31 17° SSW 05:43:18 10° SSE
IUS-13 SRM-1 3.4 05:38:57 10° SSW 05:41:31 17° SSE 05:43:04 10° ESE
Ariane H10 4.2 05:41:18 10° SW 05:43:39 15° S 05:45:26 10° SSE
Cosmos 1626 Rocket 3.6 05:41:01 10° N 05:45:28 84° E 05:49:56 10° S
Cosmos 1763 Rocket 3.4 05:41:22 10° S 05:46:25 76° ESE 05:51:28 10° NNE
SPOT 3 Rocket 3.5 05:49:24 10° SSE 05:54:31 69° ENE 05:59:36 10° N
Cosmos 540 Rocket 4.4 05:51:00 10° SSE 05:55:09 25° E 05:59:18 10° NE
Cosmos 1842 3.3 05:54:03 10° N 05:57:57 84° W 06:01:53 10° S
Ariane H10+ 2.0 05:57:09 10° WSW 05:59:03 42° S 06:01:34 16° ESE
Cosmos 1184 Rocket 3.3 05:57:20 10° NNE 06:00:30 37° E 06:03:39 10° SSE
Thor Agena Rocket 4.5 05:57:04 10° N 06:02:06 53° WNW 06:07:05 10° SSW
MOS 1 4.4 05:57:07 10° S 06:02:45 79° WSW 06:08:23 10° NNW
ARIANE 5 DEB (SYLDA) 4.2 06:00:48 10° WSW 06:04:43 53° SSE 06:11:52 17° E
Mugunghwa Rocket 4.2 06:01:10 10° WSW 06:08:38 89° NNW 06:14:20 15° ENE
CZ-4 R/B 4.5 06:08:40 10° SW 06:11:21 17° W 06:14:03 10° WNW
Cosmos 1825 Rocket 3.9 06:07:56 10° NNE 06:12:08 42° E 06:16:21 10° SSE
USA 215 4.0 06:07:52 15° ENE 06:12:15 30° SE 06:17:50 10° S
Cosmos 304 Rocket 4.0 06:12:49 10° SSW 06:17:35 72° WNW 06:22:19 10° N
FREGAT/IRIS 3.4 06:19:15 33° NE 06:19:15 33° NE 06:21:31 10° N
Meteor 2-13 Rocket 4.5 06:12:52 10° S 06:19:01 85° W 06:25:07 10° N
GEOS 3 Rocket 4.2 06:14:40 10° NNE 06:19:57 62° WNW 06:25:10 10° SW
Cosmos 1943 Rocket 3.4 06:19:29 10° NNE 06:22:47 21° ENE 06:22:47 21° ENE
XTE 3.5 06:22:11 10° SW 06:24:45 40° SSE 06:24:45 40° SSE
ARIANE 5 R/B 2.8 06:05:59 10° W 06:25:50 53° S 06:28:02 28° SE
COSMOS 2406 3.2 06:20:16 10° SSW 06:25:56 89° WNW 06:31:38 10° NNE
Cosmos 1707 4.3 06:23:30 10° NNE 06:25:08 21° NE 06:25:08 21° NE
Cosmos 2154 Rocket 4.5 06:27:39 10° SSE 06:33:08 33° E 06:38:35 10° NNE
Ariane 42P Rocket 4.1 06:11:27 10° W 06:33:45 55° SSW 06:36:21 29° SE
ALOS 2.6 06:29:11 10° S 06:33:49 68° WSW 06:38:26 10° NNW
ARIANE 5 R/B 3.6 06:12:55 10° W 06:34:51 45° SSW 06:37:09 28° SE
Cosmos 1340 Rocket 2.8 06:32:01 10° N 06:36:01 57° E 06:36:23 54° ESE
Cosmos 1898 Rocket 4.0 06:32:19 10° N 06:36:38 37° ENE 06:36:38 37° ENE
Cosmos 2181 Rocket 3.8 06:33:53 10° N 06:39:59 75° E 06:46:06 10° S
Cosmos 2074 Rocket 4.0 06:34:03 10° S 06:40:18 86° W 06:46:30 10° N
ATLAS 2A CENTAUR R/B 3.5 06:36:43 10° S 06:39:29 23° SE 06:39:29 23° SE
FENGYUN 3A 3.9 06:35:34 10° S 06:40:52 67° WSW 06:46:10 10° NNW
USA 81 3.9 06:36:44 10° N 06:41:58 70° E 06:47:13 10° S
Geosat 3.9 06:39:58 32° SE 06:42:16 67° ENE 06:47:14 10° NNW
Hubble Space Telescope 3.5 06:41:01 10° SW 06:42:26 11° SSW 06:43:50 10° S
Cosmos 1758 Rocket 3.4 06:38:49 10° N 06:43:19 84° E 06:47:47 10° S
Star 37E S/N 40099 4.0 06:38:04 10° WNW 06:44:46 84° NNE 06:45:19 64° ESE
SJ-6B 3.2 06:47:25 54° NNE 06:47:25 54° NNE 06:50:39 10° N
OAO 3 Rocket 3.0 06:46:02 10° SW 06:50:54 80° SE 06:51:08 77° ESE
BLOCK DM-SL R/B 2.6 06:46:45 10° W 06:54:33 34° SSW 06:54:46 34° S
Lacrosse 5 3.4 06:52:13 10° N 06:54:25 22° NNE 06:54:25 22° NNE
Cosmos 2369 Rocket 2.2 06:53:52 10° NNW 06:59:27 75° WSW 07:02:27 28° S
Centaur D AC-28 2.1 07:00:04 10° WSW 07:03:25 56° NNW 07:03:25 56° NNW
GPS 2-17 Rocket1 3.9 07:00:27 10° W 07:04:02 41° SW 07:04:02 41° SW
USA 234 3.8 07:00:53 18° SSE 07:05:44 56° SW 07:12:06 10° NW
ISS -0.9 07:06:22 10° W 07:08:17 15° NW 07:08:20 15° NW
Ariane 42L R/B 3.6 07:10:18 10° W 07:14:14 83° N 07:15:18 67° ENE
Cosmos 2263 4.3 07:12:50 10° NNW 07:18:03 70° WNW 07:18:03 70° WNW
ARIANE 5 DEB (SYLDA) 4.2 07:39:56 10° W 08:25:38 - E 07:43:25 62° WSW
ARIANE 5 R/B 4.3 06:57:00 10° W 07:45:34 52° SSW 07:45:56 52° S
USA 215 4.2 07:55:19 41° WNW 07:55:19 41° WNW 08:01:06 10° WSW
Ariane H10 4.5 07:36:13 10° W 08:11:43 71° WSW 08:11:43 71° WSW
